{"data":{"norad_id":58720,"epoch":"2026-09-20T13:12:05.304960Z","epoch_age_seconds":145457,"freshness":"FRESH","line1":"1 58720U 24002R   26263.55006140  .00789490  35029-3  83838-3 0  9992","line2":"2 58720  53.1264 341.3825 0012040 343.9332  16.1319 16.09502058152729","mean_motion":16.09502058,"eccentricity":0.001204,"inclination_deg":53.1264,"raan_deg":341.3825,"arg_perigee_deg":343.9332,"mean_anomaly_deg":16.1319,"bstar":0.00083838,"rev_number":15272,"period_min":89.46866472413,"perigee_km":240.2315081624,"apogee_km":256.18775084625,"semimajor_km":6626.3466295043,"source":"CELESTRAK","updated_at":"2026-09-21T09:00:33.950126Z"}}